Portada
METAR-TAF:

METAR-TAF

Aeroports :

Kuala Lumpur, Malàisia

latitud: 02-44N, longitud: 101-42E, altitud: 21 m

Observació

L'informe es va fer fa 40 minuts, a les 10:00 UTC
Vent 5 kt del Oest/Sud-Oest, variant entre Sud i Nord-Oest
Temperatura 30°C
Humitat 79%
Pressió 1007 hPa
Visibilitat 10 km o més
Escasses núvols a una alçada de 1800 ft

METAR: WMKK 231000Z 25005KT 190V320 9999 FEW018 30/26 Q1007 NOSIG

Hora: 18:40 (10:40 UTC)

Pronòstic

L'informe es va fer fa 5 hores i 40 minuts, a les 05:00 UTC
Pronòstic vàlid del 23 a les 06 UTC al 24 a les 12 UTC
Vent 6 kt del Nord/Nord-Oest
Visibilitat 10 km o més
Escasses núvols a una alçada de 1800 ft
Temporalment
l' 23 a les 20 UTC al 24 a les 00 UTC
Visibilitat: 4000 m
Escasses núvols a una alçada de 1000 ft
Escasses núvols a una alçada de 1700 ft, Cumulonimbus.
Núvols disperses a una alçada de 2600 ft
tempesta, pluja

TAF: WMKK 230500Z 2306/2412 33006KT 9999 FEW018 TEMPO 2320/2400 4000 TSRA FEW010 FEW017CB SCT026

Observacions i pronòstics meteorològics de més de 4000 aeroports (METAR i TAF).

Les estacions disponibles són els punts grocs i vermells al mapa.

Posi el ratolí al punt desitjat per veure el nom de l'estació.

Feu clic per veure les observacions i els pronòstics meteorològics.

Per canviar el mapa: feu clic els botons verds amb una creu de color negre per apropar; al botó verd amb un guió per allunyar la imatge; o en les fletxes verdes per a mapes adjacents.


METAR-TAF: